Find Starlink 3243

NORAD ID: 51116 Int'l Des: 2022-005 Owner: SPXS Country: US Constellation: starlink operational
LEOCIRCULAR

当前视图

正在加载3D地球...

About Starlink 3243

Starlink 3243 (NORAD 51116) is a starlink constellation satellite (v1.5) launched Jan 19, 2022 by SPXS of US. It operates in LEO, CIRCULAR orbit with a mass of 297.00 kg.

即将过境

Passes for default location (London). Set your location on the main map for personalized predictions.

高度历史

Loading altitude history...

两行轨道根数

1 51116U 22005N 26264.84767318 -.00000546 00000-0 -58240-5 0 9998
2 51116 53.1587 117.5172 0001280 83.9234 276.1914 15.31699918258635
Epoch: Sep 21, 2026 • Age: 8 hours

当前状态

高度 484.8 km
远地点 / 近地点 N/A
速度 7.62 km/s
星下点 -40.67°S, 16.14°E
发射日期 Jan 19, 2022
运行时间 4.6 years
类型 internet

技术详情

分类 Payload
质量 297.00 kg
干质量 275.00 kg
长度 0.20 m
跨度 9.00 m
形状 ? Box + pan
制造商 SPXS
平台类型 Starlink
阶段状态 In Orbit
所有者/国家 SPXS/US

Most Searched